Regional Weather Roundup
Issued by NWS Cleveland, OH

Home | Current Version | Previous Version | Graphics & Text | Print | Product List | Glossary On
Versions: 1 2 3 4 5 6 7 8 9 10 11 12 13 14 15 16 17 18 19 20 21 22 23 24 25 26 27 28 29 30 31 32 33 34 35 36 37 38 39 40 41 42 43 44 45 46 47 48 49 50
000
ASUS41 KCLE 020300
RWRCLE
OHIO REGIONAL WEATHER ROUNDUP
NATIONAL WEATHER SERVICE WILMINGTON, OH
1100 PM EDT TUE SEP 01 2015

NOTE: "FAIR" INDICATES FEW OR NO CLOUDS BELOW 12,000 FEET WITH NO
SIGNIFICANT WEATHER AND/OR OBSTRUCTIONS TO VISIBILITY.

OHZ001>008-015>018-024>027-034-035-043-044-020400-
   NORTHWEST OHIO

CITY           SKY/WX    TMP DP  RH WIND       PRES   REMARKS
DEFIANCE       CLEAR     73  67  81 SW5       30.08S
FINDLAY        CLEAR     71  67  87 S5        30.09R
TOLEDO EXPRESS CLEAR     75  69  81 SW5       30.07R
TOLEDO EXEC    CLEAR     76  67  73 SW6       30.08R
LIMA           PTCLDY    71  68  90 S5        30.11R
$$

OHZ009>014-019>023-028>033-038-089-020400-
   NORTHEAST OHIO

CITY           SKY/WX    TMP DP  RH WIND       PRES   REMARKS
CLE-HOPKINS    PTCLDY    72  68  87 S5        30.11S
CLE-LAKEFRONT  CLEAR     78  66  66 S9        30.07S
CUY CO. ARPT   CLEAR     75  70  83 S6        30.10S
LORAIN-ELYRIA  CLEAR     72  68  87 SW6       30.09S
ASHTABULA      PTCLDY    68  66  93 CALM      30.10F FOG
AKRON-CANTON   PTCLDY    74  66  76 CALM      30.12R
WOOSTER        NOT AVBL
MANSFIELD      PTCLDY    74  67  78 SW5       30.13R
YOUNGSTOWN     MOCLDY    72  65  78 E3        30.11F
$$

OHZ042-051>053-060>062-070>072-077>081-020400-
  SOUTHWEST OHIO

CITY           SKY/WX    TMP DP  RH WIND       PRES   REMARKS
CINC-COVINGTON CLEAR     73  67  81 CALM      30.12R
CINC-LUNKEN    CLEAR     71  68  90 CALM      30.11R
HAMILTON       CLEAR     69  67  93 CALM      30.12R
DAYTON         NOT AVBL
WRIGHT-PAT AFB CLEAR     70  70 100 NE3       30.11S
DAYTON GENERAL CLEAR     70  64  81 CALM      30.11S
WILMINGTON     CLEAR     68  65  90 CALM      30.12S FOG
$$

OHZ036-037-039>041-045>050-054>059-063>069-073>076-082>088-020400-
  CENTRAL AND SOUTHEAST OHIO

CITY           SKY/WX    TMP DP  RH WIND       PRES   REMARKS
COLUMBUS       PTCLDY    77  66  68 CALM      30.10S
OSU AIRPORT    PTCLDY    72  67  84 W6        30.11S
BOLTON FIELD   NOT AVBL
RICKENBACK AFB NOT AVBL
NEWARK         PTCLDY    72  70  93 CALM      30.11S FOG
MARION         MOCLDY    72  66  81 SW3       30.11S
LANCASTER      PTCLDY    69  66  90 CALM      30.12R
ZANESVILLE     CLEAR     72  66  81 CALM      30.11S
NEW PHILLY     PTCLDY    70  68  93 CALM      30.11S
$$


USA.gov is the U.S. government's official web portal to all federal, state and local government web resources and services.